This is the latest recevied weather packets stored in our database for station/object YN1ZSC-13. If no packets are shown the sender has not sent any weather packets the latest 10 day(s).
| Time | Temp. | Humidity | Pressure | Rain* | Wind** | Luminosity | Snow |
|---|---|---|---|---|---|---|---|
| 1777716011 | 24.44° C | 88% | 1010 hPa | 0 mm | - | - | - |
| 1777715411 | 25° C | 88% | 1010 hPa | 0 mm | - | - | - |
| 1777714810 | 25.56° C | 88% | 1010 hPa | 0 mm | - | - | - |
| 1777714210 | 25.56° C | 88% | 1010 hPa | 0 mm | - | - | - |
| 1777713609 | 23.89° C | 84% | 1010 hPa | 0 mm | - | - | - |
| 1777713009 | 23.89° C | 84% | 1010 hPa | 0 mm | - | - | - |
| 1777712408 | 23.89° C | 82% | 1010 hPa | 0 mm | - | - | - |
| 1777711808 | 24.44° C | 80% | 1010 hPa | 0 mm | - | - | - |
| 1777711207 | 24.44° C | 78% | 1010 hPa | 0 mm | - | - | - |
| 1777710607 | 24.44° C | 78% | 1010 hPa | 0 mm | - | - | - |
| 1777710006 | 24.44° C | 79% | 1010 hPa | 0 mm | - | - | - |
| 1777709406 | 24.44° C | 79% | 1010 hPa | 0 mm | - | - | - |
| 1777708805 | 25° C | 79% | 1010 hPa | 0 mm | - | - | - |
| 1777708205 | 25° C | 79% | 1010 hPa | 0 mm | - | - | - |
| 1777707604 | 25° C | 80% | 1010 hPa | 0 mm | - | - | - |
| 1777707004 | 25° C | 80% | 1010 hPa | 0 mm | - | - | - |
| 1777706403 | 25° C | 81% | 1010 hPa | 0 mm | - | - | - |
| 1777705803 | 25.56° C | 81% | 1010 hPa | 0 mm | - | - | - |
| 1777705202 | 26.11° C | 80% | 1010 hPa | 0 mm | - | - | - |
| 1777704601 | 26.11° C | 79% | 1010 hPa | 0 mm | - | - | - |
| 1777704001 | 26.67° C | 78% | 1010 hPa | 0 mm | - | - | - |
| 1777703400 | 27.22° C | 76% | 1010 hPa | 0 mm | - | - | - |
| 1777702800 | 25° C | 79% | 1010 hPa | 0 mm | - | - | - |
| 1777702199 | 25° C | 79% | 1010 hPa | 0 mm | - | - | - |
| 1777701599 | 25.56° C | 79% | 1010 hPa | 0 mm | - | - | - |
* Rain latest hour (hover to see other rain measurements)
** Current wind speed in m/s (hover to see current wind gust speed)